This demonstration page uses our WeatherBlox Daily Observations layout. Learn more.

Left ArrowRight Arrow

Hourly Observations for June 20, 2018

Temp ( °F °C ) Dew Point ( °F °C ) Humidity (%) Winds ( mph kmh ) Pressure ( in mb ) Visibility ( mi km ) Precip ( " mm )
12:54 am 00:54 Mostly Cloudy with Rain 67 19.4 65 18.3 93 93 SE 6 9 29.87 1011 6 10 0.15 3.81
1:54 am 01:54 Cloudy with Light Rain 67 19.4 64 17.8 91 91 NNW 10 17 29.87 1012 10 16 0.07 1.78
2:38 am 02:38 Cloudy with Nearby Thunderstorms 66 18.9 64 17.8 93 93 NNW 8 13 29.88 1012 9 14 0.01 0.25
2:54 am 02:54 Mostly Cloudy with Rain 67 19.4 64 17.8 91 91 NW 5 7 29.86 1011 6 10 0.02 0.51
3:10 am 03:10 Cloudy with Heavy Rain 66 18.9 64 17.8 93 93 W 3 6 29.88 1012 3 4 0.06 1.52
3:19 am 03:19 Cloudy with Rain 67 19.4 65 18.3 93 93 SW 6 9 29.88 1012 4 6 0.08 2.03
3:54 am 03:54 Mostly Cloudy with Light Rain 66 18.9 64 17.8 93 93 S 5 7 29.85 1011 9 14 0.14 3.56
4:32 am 04:32 Cloudy with Heavy Rain 66 18.9 65 18.3 96 96 Calm 29.83 1010 4 6 0.06 1.52
4:39 am 04:39 Cloudy with Heavy Rain 66 18.9 64 17.8 93 93 Calm 29.83 1010 4 6 0.09 2.29
4:54 am 04:54 Cloudy with Rain 66 18.9 65 18.3 96 96 Calm 29.83 1010 4 6 0.14 3.56
5:25 am 05:25 Cloudy with Heavy Rain 66 18.9 65 18.3 96 96 SSE 6 9 29.85 1011 3 4 0.10 2.54
5:33 am 05:33 Cloudy with Rain 66 18.9 65 18.3 96 96 SSE 6 9 29.85 1011 3 5 0.14 3.56
5:54 am 05:54 Cloudy with Light Rain 66 18.9 65 18.3 96 96 SSW 5 7 29.83 1010 4 6 0.18 4.57
6:17 am 06:17 Cloudy with Light Rain 66 18.9 65 18.3 96 96 Calm 29.83 1010 6 10 0.00 0.03
6:28 am 06:28 Cloudy with Light Rain 67 19.4 65 18.3 93 93 NNW 3 6 29.80 1009 7 11 0.00 0.03
6:41 am 06:41 Cloudy with Mist and Fog 67 19.4 66 18.9 97 97 NNW 6 9 29.80 1009 6 10 0.00 0.03
6:54 am 06:54 Cloudy with Light Rain 67 19.4 66 18.9 97 97 NNW 6 9 29.81 1010 4 6 0.00 0.03
7:50 am 07:50 Cloudy with Light Rain 66 19 66 19 100 100 W 9 15 29.85 1011 2 3 0.02 0.51
7:54 am 07:54 Cloudy with Heavy Rain 67 19.4 66 18.9 97 97 W 7 11 29.84 1011 1 1 0.06 1.52
8:04 am 08:04 Cloudy with Heavy Rain 67 19.4 66 18.9 97 97 W 6 9 29.85 1011 1 1 0.13 3.30
8:14 am 08:14 Cloudy with Heavy Rain 67 19.4 66 18.9 97 97 W 7 11 29.85 1011 1 2 0.18 4.57
8:25 am 08:25 Cloudy with Heavy Rain 67 19.4 66 18.9 97 97 W 6 9 29.85 1011 1 1 0.31 7.87
8:38 am 08:38 Cloudy with Heavy Rain 67 19.4 66 18.9 97 97 W 5 7 29.85 1011 1 2 0.39 9.91
8:45 am 08:45 Cloudy with Rain 67 19.4 66 18.9 97 97 W 6 9 29.85 1011 2 3 0.41 10.41
8:54 am 08:54 Cloudy with Rain 68 20 66 18.9 93 93 W 5 7 29.85 1011 3 5 0.43 10.92
9:14 am 09:14 Cloudy with Rain 68 20 67 19.4 96 96 W 10 17 29.85 1011 3 4 0.01 0.25
9:22 am 09:22 Cloudy with Light Rain 67 19.4 65 18.3 93 93 WNW 10 17 29.85 1011 4 6 0.02 0.51
9:54 am 09:54 Cloudy 67 19.4 64 17.8 91 91 WNW 8 13 29.85 1011 10 16 0.03 0.76
10:16 am 10:16 Cloudy 68 20 65 18.3 90 90 W 7 11 29.85 1011 10 16 0.00 0.00
10:54 am 10:54 Mostly Cloudy 70 21.1 65 18.3 84 84 NW 10 17 29.83 1010 10 16 0.00 0.00
11:43 am 11:43 Mostly Cloudy 71 21.7 65 18.3 81 81 WNW 9 15 29.83 1010 10 16 0.00 0.00
11:54 am 11:54 Cloudy 71 21.7 64 17.8 79 79 WNW 10 17 29.83 1010 10 16 0.00 0.00
12:40 pm 12:40 Mostly Cloudy 74 23.3 65 18.3 74 74 NW 13 20 29.80 1009 10 16 0.00 0.00
12:54 pm 12:54 Mostly Cloudy 74 23.3 64 17.8 71 71 NW 15 24 29.83 1010 10 16 0.00 0.00
1:08 pm 13:08 Partly Cloudy 75 23.9 64 17.8 69 69 NNW 15 24 29.80 1009 10 16 0.00 0.00
1:54 pm 13:54 Cloudy 75 23.9 64 17.8 69 69 NW 10 17 29.82 1010 10 16 0.00 0.00
2:54 pm 14:54 Mostly Cloudy 77 25 63 17.2 62 62 NW 12 19 29.80 1009 10 16 0.00 0.00
3:54 pm 15:54 Partly Cloudy 80 26.7 62 16.7 54 54 NW 16 26 29.79 1009 10 16 0.00 0.00
4:54 pm 16:54 Cloudy 77 25 62 16.7 60 60 NW 18 30 29.78 1008 10 16 0.00 0.00
5:54 pm 17:54 Mostly Sunny 75 23.9 60 15.6 60 60 NW 22 35 29.80 1009 10 16 0.00 0.00
6:54 pm 18:54 Cloudy 70 21.1 58 14.4 66 66 NW 18 30 29.82 1010 10 16 0.00 0.00
7:54 pm 19:54 Cloudy 69 20.6 59 15 70 70 NNW 14 22 29.83 1010 10 16 0.00 0.00
8:22 pm 20:22 Mostly Cloudy 69 20.6 59 15 70 70 NW 13 20 29.83 1010 10 16 0.00 0.00
8:31 pm 20:31 Mostly Cloudy 69 20.6 58 14.4 68 68 NW 18 30 29.83 1010 10 16 0.00 0.00
8:54 pm 20:54 Mostly Cloudy 67 19.4 58 14.4 73 73 NW 14 22 29.84 1010 10 16 0.00 0.00
9:04 pm 21:04 Mostly Cloudy 67 19.4 58 14.4 73 73 NW 13 20 29.83 1010 10 16 0.00 0.00
9:50 pm 21:50 Cloudy 66 19 57 14 73 73 NW 21 33 29.83 1010 10 16 0.00 0.00
9:54 pm 21:54 Cloudy 67 19.4 58 14.4 73 73 NW 18 30 29.84 1010 10 16 0.00 0.00
10:06 pm 22:06 Cloudy 66 18.9 58 14.4 75 75 NW 18 30 29.83 1010 10 16 0.00 0.00
10:54 pm 22:54 Cloudy 66 18.9 57 13.9 73 73 NW 18 30 29.83 1010 10 16 0.00 0.00
11:49 pm 23:49 Cloudy 64 18 57 14 78 78 NW 15 24 29.83 1010 10 16 0.00 0.00
11:54 pm 23:54 Cloudy 64 17.8 57 13.9 78 78 WNW 13 20 29.83 1010 10 16 0.00 0.00

Powered by AerisWeather